TimeCDT,TemperatureF,Dew PointF,Humidity,Sea Level PressureIn,VisibilityMPH,Wind Direction,Wind SpeedMPH,Gust SpeedMPH,PrecipitationIn,Events,Conditions,WindDirDegrees,DateUTC
12:15 AM,44.1,39.6,84,29.88,10.0,North,18.4,25.3,N/A,,Overcast,350,2012-04-20 05:15:00
12:35 AM,43.9,39.2,84,29.89,10.0,North,17.3,25.3,N/A,,Overcast,350,2012-04-20 05:35:00
12:55 AM,43.7,39.2,84,29.89,10.0,North,16.1,26.5,N/A,,Overcast,350,2012-04-20 05:55:00
1:15 AM,43.2,38.7,84,29.89,10.0,North,16.1,21.9,N/A,,Overcast,350,2012-04-20 06:15:00
1:35 AM,43.2,38.7,84,29.90,10.0,North,19.6,24.2,N/A,,Overcast,350,2012-04-20 06:35:00
1:55 AM,43.2,38.7,84,29.90,10.0,North,19.6,25.3,N/A,,Overcast,350,2012-04-20 06:55:00
2:15 AM,43.0,38.5,84,29.89,10.0,North,17.3,24.2,N/A,,Overcast,350,2012-04-20 07:15:00
2:35 AM,43.0,38.3,84,29.90,10.0,North,17.3,24.2,N/A,,Overcast,360,2012-04-20 07:35:00
2:55 AM,43.0,38.3,84,29.91,10.0,North,17.3,21.9,N/A,,Overcast,360,2012-04-20 07:55:00
3:15 AM,43.2,38.3,83,29.92,10.0,North,17.3,-,N/A,,Overcast,350,2012-04-20 08:15:00
3:35 AM,43.2,38.3,83,29.93,10.0,North,15.0,-,N/A,,Overcast,350,2012-04-20 08:35:00
3:55 AM,43.2,38.5,84,29.94,10.0,North,11.5,-,N/A,,Overcast,350,2012-04-20 08:55:00
4:15 AM,43.3,38.5,83,29.94,10.0,North,15.0,-,N/A,,Overcast,350,2012-04-20 09:15:00
4:35 AM,43.7,38.5,82,29.94,10.0,North,15.0,21.9,N/A,,Overcast,350,2012-04-20 09:35:00
4:55 AM,43.3,38.5,83,29.94,10.0,North,12.7,-,N/A,,Overcast,350,2012-04-20 09:55:00
5:15 AM,42.8,38.3,84,29.94,10.0,North,15.0,-,N/A,,Overcast,350,2012-04-20 10:15:00
5:35 AM,42.8,38.1,84,29.95,10.0,North,15.0,-,N/A,,Overcast,350,2012-04-20 10:35:00
5:55 AM,43.0,37.8,82,29.95,10.0,NNW,17.3,-,N/A,,Overcast,340,2012-04-20 10:55:00
6:15 AM,43.0,37.8,82,29.97,10.0,North,13.8,23.0,N/A,,Overcast,350,2012-04-20 11:15:00
6:35 AM,42.8,37.6,82,29.98,10.0,North,16.1,21.9,N/A,,Overcast,350,2012-04-20 11:35:00
6:55 AM,42.8,37.4,81,29.99,10.0,North,17.3,-,N/A,,Overcast,350,2012-04-20 11:55:00
7:15 AM,42.8,36.7,79,30.00,10.0,North,17.3,24.2,N/A,,Overcast,360,2012-04-20 12:15:00
7:35 AM,42.8,36.9,80,30.01,10.0,North,15.0,-,N/A,,Overcast,350,2012-04-20 12:35:00
7:55 AM,42.8,36.9,80,30.02,10.0,North,13.8,21.9,N/A,,Overcast,350,2012-04-20 12:55:00
8:15 AM,43.2,36.1,76,30.02,10.0,North,16.1,23.0,N/A,,Overcast,360,2012-04-20 13:15:00
8:35 AM,43.2,37.4,80,30.02,10.0,North,16.1,19.6,N/A,,Overcast,350,2012-04-20 13:35:00
8:55 AM,43.7,36.7,76,30.03,10.0,North,19.6,-,N/A,,Overcast,360,2012-04-20 13:55:00
9:15 AM,45.1,37.8,75,30.03,10.0,NNW,15.0,20.7,N/A,,Overcast,340,2012-04-20 14:15:00
9:35 AM,46.8,38.3,72,30.03,10.0,North,17.3,-,N/A,,Mostly Cloudy,350,2012-04-20 14:35:00
9:55 AM,46.2,37.8,72,30.04,10.0,NNW,16.1,-,N/A,,Mostly Cloudy,340,2012-04-20 14:55:00
10:15 AM,47.7,37.8,69,30.04,10.0,NNW,16.1,-,N/A,,Mostly Cloudy,340,2012-04-20 15:15:00
10:35 AM,48.4,37.8,67,30.04,10.0,North,15.0,18.4,N/A,,Scattered Clouds,360,2012-04-20 15:35:00
10:55 AM,48.9,37.2,64,30.05,10.0,North,13.8,21.9,N/A,,Scattered Clouds,360,2012-04-20 15:55:00
11:15 AM,50.2,36.0,58,30.06,10.0,NNW,13.8,21.9,N/A,,Clear,340,2012-04-20 16:15:00
11:35 AM,51.6,33.4,50,30.05,10.0,North,19.6,26.5,N/A,,Clear,360,2012-04-20 16:35:00
11:55 AM,52.2,32.4,47,30.06,10.0,North,18.4,25.3,N/A,,Clear,360,2012-04-20 16:55:00
12:15 PM,53.4,31.8,44,30.06,10.0,North,17.3,25.3,N/A,,Clear,10,2012-04-20 17:15:00
12:35 PM,54.1,33.4,46,30.05,10.0,North,19.6,28.8,N/A,,Clear,10,2012-04-20 17:35:00
12:55 PM,54.1,31.3,42,30.06,10.0,North,20.7,27.6,N/A,,Clear,350,2012-04-20 17:55:00
1:15 PM,54.5,32.4,43,30.05,10.0,North,20.7,29.9,N/A,,Clear,360,2012-04-20 18:15:00
1:35 PM,55.0,33.1,43,30.05,10.0,North,23.0,26.5,N/A,,Clear,360,2012-04-20 18:35:00
1:55 PM,55.4,32.4,42,30.05,10.0,NNE,19.6,25.3,N/A,,Clear,20,2012-04-20 18:55:00
2:15 PM,55.6,33.4,43,30.05,10.0,North,17.3,26.5,N/A,,Clear,360,2012-04-20 19:15:00
2:35 PM,56.1,32.4,41,30.05,10.0,NNE,18.4,28.8,N/A,,Clear,20,2012-04-20 19:35:00
2:55 PM,56.3,33.3,42,30.05,10.0,North,16.1,24.2,N/A,,Clear,360,2012-04-20 19:55:00
3:15 PM,57.0,33.1,40,30.06,10.0,NNE,12.7,23.0,N/A,,Clear,20,2012-04-20 20:15:00
3:35 PM,57.0,31.5,38,30.06,10.0,North,16.1,24.2,N/A,,Clear,350,2012-04-20 20:35:00
3:55 PM,57.6,32.2,38,30.06,10.0,North,16.1,26.5,N/A,,Clear,360,2012-04-20 20:55:00
4:15 PM,57.4,30.6,36,30.05,10.0,North,18.4,23.0,N/A,,Clear,360,2012-04-20 21:15:00
4:35 PM,57.6,30.7,36,30.05,10.0,North,12.7,23.0,N/A,,Clear,350,2012-04-20 21:35:00
4:55 PM,57.4,29.1,34,30.05,10.0,North,15.0,21.9,N/A,,Clear,360,2012-04-20 21:55:00
5:15 PM,57.9,31.8,37,30.05,10.0,NNE,13.8,21.9,N/A,,Clear,20,2012-04-20 22:15:00
5:35 PM,57.2,31.5,38,30.05,10.0,NNW,12.7,18.4,N/A,,Scattered Clouds,340,2012-04-20 22:35:00
5:55 PM,57.2,32.0,38,30.05,10.0,North,12.7,17.3,N/A,,Scattered Clouds,360,2012-04-20 22:55:00
6:15 PM,57.0,31.5,38,30.05,10.0,North,11.5,-,N/A,,Scattered Clouds,350,2012-04-20 23:15:00
6:35 PM,56.7,31.3,38,30.06,10.0,North,11.5,-,N/A,,Clear,360,2012-04-20 23:35:00
6:55 PM,56.1,32.2,40,30.06,10.0,North,13.8,18.4,N/A,,Clear,10,2012-04-20 23:55:00
7:15 PM,55.4,32.0,41,30.05,10.0,North,13.8,-,N/A,,Clear,360,2012-04-21 00:15:00
7:35 PM,54.5,32.0,42,30.06,10.0,North,10.4,-,N/A,,Clear,360,2012-04-21 00:35:00
7:55 PM,52.9,35.2,51,30.06,10.0,North,6.9,-,N/A,,Clear,10,2012-04-21 00:55:00
8:35 PM,50.9,36.0,57,30.06,10.0,North,4.6,-,N/A,,Clear,350,2012-04-21 01:35:00
9:15 PM,49.5,35.1,58,30.07,10.0,North,4.6,-,N/A,,Clear,350,2012-04-21 02:15:00
9:35 PM,49.1,35.8,60,30.07,10.0,North,3.5,-,N/A,,Clear,350,2012-04-21 02:35:00
9:55 PM,48.7,35.2,60,30.07,10.0,NNW,3.5,-,N/A,,Clear,340,2012-04-21 02:55:00
10:15 PM,48.2,35.6,62,30.07,10.0,Calm,Calm,-,N/A,,Clear,0,2012-04-21 03:15:00
10:35 PM,47.7,35.4,63,30.06,10.0,Calm,Calm,-,N/A,,Clear,0,2012-04-21 03:35:00
10:55 PM,47.5,34.7,61,30.06,10.0,Calm,Calm,-,N/A,,Clear,0,2012-04-21 03:55:00
11:15 PM,44.1,36.1,74,30.07,10.0,East,3.5,-,N/A,,Clear,90,2012-04-21 04:15:00
11:35 PM,42.3,36.9,81,30.06,10.0,Calm,Calm,-,N/A,,Clear,0,2012-04-21 04:35:00
11:55 PM,42.3,36.5,80,30.06,10.0,Calm,Calm,-,N/A,,Clear,0,2012-04-21 04:55:00